Project,Study,Ord_Occ,Event_Num,Cast_ID,Date_Time_UTC,Date_Time_PST,Lat_Dec,Lon_Dec,Sta_ID,Line,Sta,Depth,Pressure,PrQ,Temp1,Temp1Q,Temp2,Temp2Q,TempAve,Salt1,Salt1Q,Salt1_Corr,Salt2,Salt2Q,Salt2_Corr,SaltAve_Corr,Ox1,Ox1Q,Ox1_CruiseCorr,Ox1_StaCorr,Ox2,Ox2Q,Ox2_CruiseCorr,Ox2_StaCorr,OxAve_StaCorr,Ox1uM,Ox1uM_CruiseCorr,Ox1uM_StaCorr,Ox2uM,Ox2uM_CruiseCorr,Ox2uM_StaCorr,OxAveuM_StaCorr,FluorV,FluorQ,EstChl_CruiseCorr,EstChl_StaCorr,ISUSV,ISUSQ,EstNO3_CruiseCorr,EstNO3_StaCorr,SigThetaTS1,SigThetaTS1Q,SigThetaTS2,SigThetaTS2Q,BAT,XMiss,TransQ,pH,pHQ,SPAR,SPARQ,PAR,PARQ,PoT1,PoT2,DynHt,SVA,OxSat1,OxSat2,BTL_Depth,BTL_Temp,SaltB,OxB,OxBuM,Chl-a,Phaeo,NO3,NO2,NH4,PO4,SIL
CalCOFI,2105SH,002,,2105_002d,04-May-2021 20:51:09,04-May-2021 12:51:09,32.91175,-117.39468,093.3 028.0,093.3,028.0,4.000,4.028,,17.1780,,17.1750,,17.1765,33.6382,,33.6394,33.6421,,33.6440,33.6417,5.7024,,6.0297,6.1756,5.7688,,6.0347,6.1751,6.1754,248.597,262.3821,183.3356,251.490,273.6140,182.6776,183.0066,0.0552,,0.1890,0.1542,2.7278,,0.0000,,24.4273,,24.4310,,,,,,,,,,,17.1773,17.1744,0.0010,349.447,103.665,104.868,3,16.709,33.6364,6.217,271.00,0.308,0.086,0.12,0.00,0.00,0.21,3.83
CalCOFI,2105SH,002,,2105_002d,04-May-2021 20:51:28,04-May-2021 12:51:28,32.91171,-117.39468,093.3 028.0,093.3,028.0,5.000,5.035,,17.1734,,17.1882,,17.1808,33.6467,,33.6479,33.6476,,33.6495,33.6487,5.7187,,6.0467,6.1931,5.7769,,6.0431,6.1837,6.1884,249.306,263.1233,183.8187,251.842,274.3797,182.9136,183.3662,0.0554,,0.1905,0.1556,2.7295,,0.0000,,24.4350,,24.4322,,,,,,,,,,,17.1725,17.1874,0.0077,348.747,103.958,105.046,,,,,,,,,,,,
CalCOFI,2105SH,002,,2105_002d,04-May-2021 20:51:35,04-May-2021 12:51:35,32.91170,-117.39468,093.3 028.0,093.3,028.0,6.000,6.043,,17.1538,,17.1011,,17.1275,33.6504,,33.6516,33.6394,,33.6413,33.6465,5.7362,,6.0650,6.2118,5.8091,,6.0765,6.2179,6.2149,250.068,263.9199,184.3378,253.243,275.2026,183.8528,184.0953,0.0543,,0.1823,0.1476,2.7346,,0.0000,,24.4425,,24.4465,,,,,,,,,,,17.1528,17.1002,0.0116,348.069,104.239,105.449,,,,,,,,,,,,
CalCOFI,2105SH,002,,2105_002d,04-May-2021 20:51:36,04-May-2021 12:51:36,32.91169,-117.39468,093.3 028.0,093.3,028.0,7.000,7.050,,17.0125,,16.9944,,17.0035,33.6475,,33.6487,33.6464,,33.6483,33.6485,5.7178,,6.0458,6.1921,5.8340,,6.1023,6.2443,6.2182,249.255,263.0700,183.7839,254.323,274.3246,184.5768,184.1804,0.0539,,0.1794,0.1447,2.7381,,0.0000,,24.4737,,24.4771,,,,,,,,,,,17.0113,16.9933,0.0151,345.128,103.619,105.689,,,,,,,,,,,,
CalCOFI,2105SH,002,,2105_002d,04-May-2021 20:51:37,04-May-2021 12:51:37,32.91168,-117.39468,093.3 028.0,093.3,028.0,8.000,8.057,,17.0204,,16.9887,,17.0046,33.6501,,33.6513,33.6383,,33.6402,33.6458,5.8123,,6.1446,6.2935,5.9044,,6.1752,6.3190,6.3063,253.376,267.3781,186.5917,257.390,278.7753,186.6330,186.6124,0.0547,,0.1853,0.1505,2.7418,,0.0000,,24.4739,,24.4723,,,,,,,,,,,17.0191,16.9874,0.0186,345.146,105.350,106.945,,,,,,,,,,,,
CalCOFI,2105SH,002,,2105_002d,04-May-2021 20:51:38,04-May-2021 12:51:38,32.91168,-117.39468,093.3 028.0,093.3,028.0,9.000,9.064,,16.3384,,16.2631,,16.3008,33.6564,,33.6576,33.6015,,33.6034,33.6305,5.9686,,6.3081,6.4611,6.0448,,6.3206,6.4680,6.4646,260.149,274.4586,191.2065,263.477,286.0901,190.7137,190.9601,0.0563,,0.1971,0.1622,2.7459,,0.0000,,24.6370,,24.6122,,,,,,,,,,,16.3369,16.2617,0.0220,329.630,106.762,107.933,9,15.251,,,282.56,,,0.0,0.00,0.00,0.25,3.65
CalCOFI,2105SH,002,,2105_002d,04-May-2021 20:51:40,04-May-2021 12:51:40,32.91168,-117.39468,093.3 028.0,093.3,028.0,10.000,10.071,,15.5201,,15.5037,,15.5119,33.6415,,33.6427,33.5831,,33.5850,33.6139,6.0733,,6.4176,6.5734,6.1201,,6.3986,6.5479,6.5607,264.667,279.1817,194.2848,266.715,290.9696,192.8845,193.5847,0.0651,,0.2619,0.2264,2.7507,,0.0000,,24.8104,,24.7691,,,,,,,,,,,15.5186,15.5021,0.0252,313.134,106.897,107.647,,,,,,,,,,,,
CalCOFI,2105SH,002,,2105_002d,04-May-2021 20:51:41,04-May-2021 12:51:41,32.91168,-117.39468,093.3 028.0,093.3,028.0,11.000,11.078,,15.0786,,15.0774,,15.0780,33.6144,,33.6156,33.5823,,33.5842,33.5999,6.0992,,6.4446,6.6012,6.1604,,6.4403,6.5906,6.5959,265.776,280.3410,195.0404,268.449,292.1673,194.0470,194.5437,0.0788,,0.3620,0.3263,2.7561,,0.0000,,24.8871,,24.8626,,,,,,,,,,,15.0770,15.0757,0.0283,305.860,106.402,107.445,,,,,,,,,,,,
CalCOFI,2105SH,002,,2105_002d,04-May-2021 20:51:43,04-May-2021 12:51:43,32.91168,-117.39468,093.3 028.0,093.3,028.0,12.000,12.085,,14.7836,,14.7841,,14.7839,33.6048,,33.6060,33.5774,,33.5793,33.5927,6.1212,,6.4677,6.6248,6.2057,,6.4873,6.6387,6.6318,266.722,281.3300,195.6849,270.409,293.1890,195.3610,195.5230,0.0922,,0.4591,0.4240,2.7613,,0.0000,,24.9436,,24.9224,,,,,,,,,,,14.7819,14.7823,0.0314,300.501,106.153,107.601,,,,,,,,,,,,
CalCOFI,2105SH,002,,2105_002d,04-May-2021 20:51:44,04-May-2021 12:51:44,32.91166,-117.39468,093.3 028.0,093.3,028.0,13.000,13.093,,14.5807,,14.5808,,14.5808,33.6019,,33.6031,33.5720,,33.5739,33.5885,6.1391,,6.4864,6.6440,6.2292,,6.5116,6.6636,6.6538,267.488,282.1308,196.2068,271.422,294.0163,196.0401,196.1235,0.1057,,0.5560,0.5225,2.7650,,0.0000,,24.9848,,24.9618,,,,,,,,,,,14.5788,14.5789,0.0344,296.610,106.028,107.566,,,,,,,,,,,,
CalCOFI,2105SH,002,,2105_002d,04-May-2021 20:51:46,04-May-2021 12:51:46,32.91166,-117.39468,093.3 028.0,093.3,028.0,14.000,14.100,,14.4362,,14.4369,,14.4366,33.5909,,33.5921,33.5769,,33.5788,33.5855,6.1705,,6.5192,6.6777,6.2492,,6.5323,6.6849,6.6813,268.852,283.5567,197.1362,272.284,295.4894,196.6180,196.8771,0.1196,,0.6549,0.6238,2.7702,,0.0000,,25.0071,,24.9962,,,,,,,,,,,14.4341,14.4349,0.0374,294.507,106.255,107.603,,,,,,,,,,,,
CalCOFI,2105SH,002,,2105_002d,04-May-2021 20:51:47,04-May-2021 12:51:47,32.91166,-117.39468,093.3 028.0,093.3,028.0,15.000,15.107,,14.4147,,14.4147,,14.4147,33.5903,,33.5915,33.5793,,33.5812,33.5864,6.1811,,6.5303,6.6890,6.2452,,6.5282,6.6806,6.6848,269.311,284.0365,197.4489,272.109,295.9851,196.5007,196.9748,0.1263,,0.7022,0.6727,2.7720,,0.0000,,25.0112,,25.0028,,,,,,,,,,,14.4125,14.4125,0.0403,294.147,106.390,107.488,,,,,,,,,,,,
CalCOFI,2105SH,002,,2105_002d,04-May-2021 20:51:49,04-May-2021 12:51:49,32.91166,-117.39466,093.3 028.0,093.3,028.0,16.000,16.114,,14.3878,,14.3885,,14.3882,33.5912,,33.5924,33.5803,,33.5822,33.5873,6.1607,,6.5090,6.6671,6.2344,,6.5170,6.6692,6.6682,268.424,283.1092,196.8446,271.633,295.0272,196.1816,196.5131,0.1351,,0.7641,0.7369,2.7706,,0.0000,,25.0177,,25.0091,,,,,,,,,,,14.3855,14.3862,0.0433,293.565,105.984,107.244,,,,,,,,,,,,
CalCOFI,2105SH,002,,2105_002d,04-May-2021 20:51:50,04-May-2021 12:51:50,32.91164,-117.39467,093.3 028.0,093.3,028.0,17.000,17.121,,14.3210,,14.3247,,14.3229,33.5920,,33.5932,33.5797,,33.5816,33.5874,6.1412,,6.4886,6.6462,6.1805,,6.4612,6.6120,6.6291,267.569,282.2154,196.2620,269.285,294.1038,194.6075,195.4348,0.1477,,0.8520,0.8288,2.7651,,0.0000,,25.0324,,25.0222,,,,,,,,,,,14.3185,14.3222,0.0462,292.190,105.506,106.182,,,,,,,,,,,,
CalCOFI,2105SH,002,,2105_002d,04-May-2021 20:51:52,04-May-2021 12:51:52,32.91164,-117.39468,093.3 028.0,093.3,028.0,18.000,18.128,,14.1495,,14.1462,,14.1479,33.5924,,33.5936,33.5769,,33.5788,33.5862,6.0017,,6.3427,6.4966,6.0044,,6.2788,6.4251,6.4609,261.479,275.8489,192.1127,261.601,287.5265,189.4561,190.7844,0.1627,,0.9556,0.9381,2.7492,,0.0000,,25.0687,,25.0575,,,,,,,,,,,14.1469,14.1436,0.0492,288.756,102.754,102.784,,,,,,,,,,,,
CalCOFI,2105SH,002,,2105_002d,04-May-2021 20:51:54,04-May-2021 12:51:54,32.91164,-117.39468,093.3 028.0,093.3,028.0,19.000,19.136,,13.7562,,13.7504,,13.7533,33.5997,,33.6009,33.5652,,33.5671,33.5840,5.7831,,6.1141,6.2621,5.7857,,6.0522,6.1931,6.2276,251.935,265.8716,185.6099,252.057,277.2190,183.0577,184.3338,0.1647,,0.9693,0.9527,2.7193,,0.0000,,25.1557,,25.1302,,,,,,,,,,,13.7535,13.7477,0.0520,280.495,98.231,98.243,,,,,,,,,,,,
CalCOFI,2105SH,002,,2105_002d,04-May-2021 20:51:56,04-May-2021 12:51:56,32.91164,-117.39468,093.3 028.0,093.3,028.0,20.000,20.143,,13.2669,,13.2652,,13.2661,33.5906,,33.5918,33.5699,,33.5718,33.5818,5.6172,,5.9406,6.0842,5.6333,,5.8944,6.0314,6.0578,244.687,258.2946,180.6715,245.391,269.3911,178.5888,179.6302,0.1868,,1.1199,1.1139,2.6784,,0.0000,,25.2484,,25.2327,,,,,,,,,,,13.2641,13.2625,0.0548,271.691,94.456,94.710,,,,,,,,,,,,
CalCOFI,2105SH,002,,2105_002d,04-May-2021 20:51:58,04-May-2021 12:51:58,32.91162,-117.39468,093.3 028.0,093.3,028.0,21.000,21.150,,13.0844,,13.0834,,13.0839,33.5885,,33.5897,33.5700,,33.5719,33.5808,5.4500,,5.7657,5.9049,5.4322,,5.6861,5.8180,5.8615,237.396,250.6726,175.7039,236.622,261.5168,172.7100,174.2070,0.2139,,1.3012,1.3115,2.6300,,0.0000,,25.2833,,25.2692,,,,,,,,,,,13.0815,13.0805,0.0575,268.389,91.299,90.989,,,,,,,,,,,,
CalCOFI,2105SH,002,,2105_002d,04-May-2021 20:51:59,04-May-2021 12:51:59,32.91162,-117.39468,093.3 028.0,093.3,028.0,22.000,22.157,,12.9750,,12.9756,,12.9753,33.5887,,33.5899,33.5711,,33.5730,33.5815,5.1645,,5.4671,5.5986,5.1708,,5.4153,5.5406,5.5696,224.952,237.6636,167.2252,225.233,248.0773,165.0748,166.1500,0.2568,,1.5812,1.6244,2.5847,,0.0000,,25.3052,,25.2914,,,,,,,,,,,12.9721,12.9726,0.0602,266.334,86.321,86.419,,,,,,,,,,,,
CalCOFI,2105SH,002,,2105_002d,04-May-2021 20:52:01,04-May-2021 12:52:01,32.91162,-117.39468,093.3 028.0,093.3,028.0,23.000,23.164,,12.7095,,12.7160,,12.7128,33.5866,,33.5878,33.5610,,33.5629,33.5754,5.0282,,5.3246,5.4524,5.0867,,5.3282,5.4514,5.4519,219.005,231.4466,163.1733,221.559,241.6545,162.6117,162.8925,0.2770,,1.7099,1.7717,2.5371,,0.0000,,25.3558,,25.3347,,,,,,,,,,,12.7064,12.7129,0.0629,261.534,83.581,84.552,,,,,,,,,,,,
CalCOFI,2105SH,002,,2105_002d,04-May-2021 20:52:03,04-May-2021 12:52:03,32.91162,-117.39468,093.3 028.0,093.3,028.0,24.000,24.172,,12.5044,,12.5099,,12.5072,33.5699,,33.5711,33.5528,,33.5547,33.5629,4.9717,,5.2655,5.3918,5.0617,,5.3023,5.4248,5.4083,216.539,228.8687,161.4931,220.464,238.9912,161.8776,161.6854,0.3028,,1.8715,1.9598,2.4791,,0.0000,,25.3828,,25.3684,,,,,,,,,,,12.5012,12.5067,0.0655,258.987,82.282,83.773,24,12.544,,, ,,,,,,,
CalCOFI,2105SH,002,,2105_002d,04-May-2021 20:52:05,04-May-2021 12:52:05,32.91162,-117.39467,093.3 028.0,093.3,028.0,25.000,25.179,,12.4860,,12.4862,,12.4861,33.5650,,33.5662,33.5560,,33.5579,33.5621,4.9200,,5.2114,5.3364,4.9749,,5.2124,5.3327,5.3346,214.290,226.5176,159.9607,216.683,236.5623,159.3428,159.6518,0.2901,,1.7924,1.8672,2.4119,,0.0000,,25.3825,,25.3755,,,,,,,,,,,12.4827,12.4829,0.0681,259.034,81.394,82.298,,,,,,,,,,,,
CalCOFI,2105SH,002,,2105_002d,04-May-2021 20:52:07,04-May-2021 12:52:07,32.91162,-117.39466,093.3 028.0,093.3,028.0,26.000,26.186,,12.4720,,12.4722,,12.4721,33.5703,,33.5715,33.5619,,33.5638,33.5677,4.7710,,5.0556,5.1766,4.7721,,5.0023,5.1176,5.1471,207.799,219.7319,155.5381,207.845,229.5520,153.4177,154.4779,0.2738,,1.6897,1.7484,2.3445,,0.0000,,25.3894,,25.3828,,,,,,,,,,,12.4686,12.4688,0.0707,258.405,78.909,78.922,,,,,,,,,,,,
CalCOFI,2105SH,002,,2105_002d,04-May-2021 20:52:09,04-May-2021 12:52:09,32.91160,-117.39466,093.3 028.0,093.3,028.0,27.000,27.193,,12.3723,,12.3708,,12.3716,33.5789,,33.5801,33.5679,,33.5698,33.5750,4.5167,,4.7897,4.9038,4.5152,,4.7362,4.8450,4.8744,196.716,208.1457,147.9868,196.654,217.5823,145.9152,146.9510,0.2502,,1.5387,1.5762,2.2834,,0.0000,,25.4153,,25.4070,,,,,,,,,,,12.3688,12.3673,0.0733,255.967,74.552,74.520,,,,,,,,,,,,
CalCOFI,2105SH,002,,2105_002d,04-May-2021 20:52:10,04-May-2021 12:52:10,32.91160,-117.39466,093.3 028.0,093.3,028.0,28.000,28.200,,12.1489,,12.1464,,12.1477,33.5927,,33.5939,33.5741,,33.5760,33.5850,4.3419,,4.6069,4.7163,4.3923,,4.6089,4.7146,4.7155,189.094,200.1777,142.7936,191.292,209.3505,142.3205,142.5571,0.2287,,1.3988,1.4195,2.2277,,0.0000,,25.4687,,25.4546,,,,,,,,,,,12.1453,12.1428,0.0759,250.906,71.339,72.155,,,,,,,,,,,,
CalCOFI,2105SH,002,,2105_002d,04-May-2021 20:52:12,04-May-2021 12:52:12,32.91160,-117.39466,093.3 028.0,093.3,028.0,29.000,29.208,,11.9742,,11.9732,,11.9737,33.5922,,33.5934,33.5817,,33.5836,33.5885,4.2735,,4.5353,4.6430,4.3412,,4.5560,4.6603,4.6517,186.110,197.0582,140.7605,189.057,206.1278,140.8222,140.7914,0.2326,,1.4244,1.4479,2.1754,,0.0000,,25.5013,,25.4934,,,,,,,,,,,11.9705,11.9695,0.0784,247.816,69.958,71.059,,,,,,,,,,,,
CalCOFI,2105SH,002,,2105_002d,04-May-2021 20:52:14,04-May-2021 12:52:14,32.91158,-117.39466,093.3 028.0,093.3,028.0,30.000,30.215,,11.9341,,11.9341,,11.9341,33.5942,,33.5954,33.5869,,33.5888,33.5921,4.1972,,4.4555,4.5611,4.2556,,4.4674,4.5695,4.5653,182.784,193.5812,138.4943,185.329,202.5357,138.3229,138.4086,0.2276,,1.3916,1.4114,2.1237,,0.0000,,25.5104,,25.5048,,,,,,,,,,,11.9303,11.9302,0.0809,246.974,68.651,69.603,30,11.602,,, ,,,,,,,
CalCOFI,2105SH,002,,2105_002d,04-May-2021 20:52:16,04-May-2021 12:52:16,32.91158,-117.39466,093.3 028.0,093.3,028.0,31.000,31.222,,11.8970,,11.8973,,11.8972,33.5983,,33.5995,33.5901,,33.5920,33.5958,4.0770,,4.3298,4.4322,4.1261,,4.3332,4.4321,4.4322,177.547,188.1064,134.9261,179.688,196.8798,134.5411,134.7336,0.2347,,1.4381,1.4632,2.0734,,0.0000,,25.5206,,25.5142,,,,,,,,,,,11.8931,11.8934,0.0833,246.030,66.635,67.435,,,,,,,,,,,,
CalCOFI,2105SH,002,,2105_002d,04-May-2021 20:52:18,04-May-2021 12:52:18,32.91158,-117.39466,093.3 028.0,093.3,028.0,32.000,32.230,,11.7379,,11.7388,,11.7384,33.6012,,33.6024,33.5837,,33.5856,33.5940,4.0018,,4.2512,4.3516,4.0135,,4.2166,4.3126,4.3321,174.267,184.6775,132.6913,174.780,193.3373,131.2508,131.9711,0.2444,,1.5012,1.5340,2.0315,,0.0000,,25.5525,,25.5388,,,,,,,,,,,11.7339,11.7347,0.0858,243.009,65.189,65.374,,,,,,,,,,,,
CalCOFI,2105SH,002,,2105_002d,04-May-2021 20:52:19,04-May-2021 12:52:19,32.91158,-117.39466,093.3 028.0,093.3,028.0,33.000,33.237,,11.5655,,11.5661,,11.5658,33.5939,,33.5951,33.5827,,33.5846,33.5899,3.8529,,4.0955,4.1918,3.8800,,4.0783,4.1710,4.1814,167.781,177.8971,128.2722,168.959,186.3324,127.3484,127.8103,0.2175,,1.3251,1.3378,1.9891,,0.0000,,25.5788,,25.5700,,,,,,,,,,,11.5613,11.5620,0.0882,240.527,62.533,62.968,,,,,,,,,,,,
CalCOFI,2105SH,002,,2105_002d,04-May-2021 20:52:21,04-May-2021 12:52:21,32.91158,-117.39466,093.3 028.0,093.3,028.0,34.000,34.244,,11.4062,,11.4064,,11.4063,33.6125,,33.6137,33.6008,,33.6027,33.6082,3.7643,,4.0028,4.0968,3.8351,,4.0318,4.1233,4.1101,163.913,173.8535,125.6367,166.998,182.1550,126.0337,125.8352,0.2464,,1.5141,1.5485,1.9454,,0.0000,,25.6225,,25.6133,,,,,,,,,,,11.4019,11.4022,0.0906,236.384,60.895,62.036,,,,,,,,,,,,
CalCOFI,2105SH,002,,2105_002d,04-May-2021 20:52:23,04-May-2021 12:52:23,32.91158,-117.39466,093.3 028.0,093.3,028.0,35.000,35.251,,11.3628,,11.3637,,11.3633,33.6137,,33.6149,33.6071,,33.6090,33.6120,3.7507,,3.9886,4.0822,3.8170,,4.0130,4.1041,4.0932,163.322,173.2356,125.2340,166.210,181.5167,125.5054,125.3697,0.2121,,1.2893,1.2984,1.9101,,0.0000,,25.6314,,25.6261,,,,,,,,,,,11.3585,11.3593,0.0930,235.565,60.620,61.690,,,,,,,,,,,,
CalCOFI,2105SH,002,,2105_002d,04-May-2021 20:52:25,04-May-2021 12:52:25,32.91157,-117.39466,093.3 028.0,093.3,028.0,36.000,36.259,,11.3522,,11.3528,,11.3525,33.6144,,33.6156,33.6098,,33.6117,33.6137,3.7211,,3.9576,4.0505,3.7771,,3.9717,4.0618,4.0562,162.033,171.8881,124.3558,164.471,180.1246,124.3396,124.3477,0.2107,,1.2800,1.2882,1.8764,,0.0000,,25.6339,,25.6302,,,,,,,,,,,11.3477,11.3484,0.0954,235.346,60.129,61.032,,,,,,,,,,,,
CalCOFI,2105SH,002,,2105_002d,04-May-2021 20:52:27,04-May-2021 12:52:27,32.91156,-117.39466,093.3 028.0,093.3,028.0,37.000,37.266,,11.3221,,11.3231,,11.3226,33.6205,,33.6217,33.6146,,33.6165,33.6191,3.6773,,3.9118,4.0035,3.7410,,3.9343,4.0235,4.0135,160.120,169.8882,123.0524,162.895,178.0585,123.2830,123.1677,0.1929,,1.1610,1.1584,1.8462,,0.0000,,25.6441,,25.6393,,,,,,,,,,,11.3176,11.3185,0.0978,234.401,59.384,60.412,,,,,,,,,,,,
CalCOFI,2105SH,002,,2105_002d,04-May-2021 20:52:29,04-May-2021 12:52:29,32.91156,-117.39466,093.3 028.0,093.3,028.0,38.000,38.273,,11.2863,,11.2865,,11.2864,33.6238,,33.6250,33.6199,,33.6218,33.6234,3.6648,,3.8987,3.9901,3.7259,,3.9187,4.0075,3.9988,159.575,169.3185,122.6811,162.236,177.4699,122.8412,122.7612,0.2277,,1.3923,1.4122,1.8263,,0.0000,,25.6532,,25.6502,,,,,,,,,,,11.2816,11.2818,0.1001,233.561,59.138,60.123,,,,,,,,,,,,
CalCOFI,2105SH,002,,2105_002d,04-May-2021 20:52:30,04-May-2021 12:52:30,32.91156,-117.39466,093.3 028.0,093.3,028.0,39.000,39.280,,11.2829,,11.2828,,11.2829,33.6260,,33.6272,33.6232,,33.6251,33.6262,3.6399,,3.8727,3.9634,3.6931,,3.8847,3.9727,3.9681,158.491,168.1853,121.9425,160.810,176.2992,121.8852,121.9139,0.1984,,1.1979,1.1985,1.8082,,0.0000,,25.6556,,25.6534,,,,,,,,,,,11.2781,11.2780,0.1025,233.358,58.733,59.592,,,,,,,,,,,,
CalCOFI,2105SH,002,,2105_002d,04-May-2021 20:52:32,04-May-2021 12:52:32,32.91156,-117.39466,093.3 028.0,093.3,028.0,40.000,40.288,,11.2741,,11.2745,,11.2743,33.6305,,33.6317,33.6278,,33.6297,33.6307,3.5815,,3.8116,3.9007,3.6269,,3.8161,3.9024,3.9016,155.948,165.5268,120.2098,157.926,173.5528,119.9518,120.0808,0.1841,,1.1016,1.0942,1.7890,,0.0000,,25.6607,,25.6585,,,,,,,,,,,11.2692,11.2696,0.1048,232.894,57.782,58.514,,,,,,,,,,,,
CalCOFI,2105SH,002,,2105_002d,04-May-2021 20:52:34,04-May-2021 12:52:34,32.91155,-117.39465,093.3 028.0,093.3,028.0,41.000,41.295,,11.2225,,11.2223,,11.2224,33.6458,,33.6470,33.6415,,33.6434,33.6452,3.5637,,3.7930,3.8817,3.6185,,3.8074,3.8935,3.8876,155.168,164.7114,119.6784,157.558,172.7104,119.7051,119.6918,0.1796,,1.0711,1.0614,1.7754,,0.0000,,25.6819,,25.6787,,,,,,,,,,,11.2174,11.2172,0.1072,230.898,57.437,58.320,,,,,,,,,,,,
CalCOFI,2105SH,002,,2105_002d,04-May-2021 20:52:36,04-May-2021 12:52:36,32.91154,-117.39464,093.3 028.0,093.3,028.0,42.000,42.302,,11.2103,,11.2101,,11.2102,33.6462,,33.6474,33.6440,,33.6459,33.6467,3.5496,,3.7783,3.8665,3.6128,,3.8015,3.8874,3.8770,154.555,164.0706,119.2607,157.307,172.0483,119.5368,119.3988,0.1843,,1.1029,1.0957,1.7658,,0.0000,,25.6845,,25.6828,,,,,,,,,,,11.2052,11.2050,0.1095,230.676,57.195,58.213,,,,,,,,,,,,
CalCOFI,2105SH,002,,2105_002d,04-May-2021 20:52:38,04-May-2021 12:52:38,32.91154,-117.39466,093.3 028.0,093.3,028.0,43.000,43.310,,11.2026,,11.2031,,11.2029,33.6466,,33.6478,33.6450,,33.6469,33.6474,3.5525,,3.7813,3.8696,3.6066,,3.7951,3.8809,3.8753,154.683,164.2044,119.3479,157.036,172.1866,119.3551,119.3515,0.1433,,0.8213,0.7967,1.7545,,0.0000,,25.6862,,25.6849,,,,,,,,,,,11.1973,11.1979,0.1118,230.535,57.234,58.104,,,,,,,,,,,,
CalCOFI,2105SH,002,,2105_002d,04-May-2021 20:52:41,04-May-2021 12:52:41,32.91154,-117.39465,093.3 028.0,093.3,028.0,44.000,44.317,,11.1973,,11.1988,,11.1981,33.6470,,33.6482,33.6455,,33.6474,33.6478,3.5314,,3.7592,3.8470,3.5844,,3.7721,3.8573,3.8522,153.761,163.2405,118.7197,156.069,171.1908,118.7068,118.7133,0.1366,,0.7746,0.7478,1.7417,,0.0000,,25.6875,,25.6861,,,,,,,,,,,11.1919,11.1934,0.1141,230.435,56.886,57.741,,,,,,,,,,,,
CalCOFI,2105SH,002,,2105_002d,04-May-2021 20:52:42,04-May-2021 12:52:42,32.91152,-117.39464,093.3 028.0,093.3,028.0,45.000,45.324,,11.1667,,11.1716,,11.1692,33.6491,,33.6503,33.6457,,33.6476,33.6490,3.5215,,3.7489,3.8364,3.5635,,3.7505,3.8351,3.8358,153.330,162.7900,118.4261,155.159,170.7253,118.0968,118.2615,0.1498,,0.8665,0.8441,1.7358,,0.0000,,25.6947,,25.6911,,,,,,,,,,,11.1611,11.1661,0.1164,229.776,56.691,57.372,,,,,,,,,,,,
CalCOFI,2105SH,002,,2105_002d,04-May-2021 20:52:43,04-May-2021 12:52:43,32.91152,-117.39464,093.3 028.0,093.3,028.0,46.000,46.331,,11.1333,,11.1322,,11.1328,33.6519,,33.6531,33.6480,,33.6499,33.6515,3.5101,,3.7370,3.8242,3.5575,,3.7443,3.8288,3.8265,152.833,162.2704,118.0874,154.899,170.1886,117.9225,118.0050,0.1517,,0.8797,0.8579,1.7306,,0.0000,,25.7029,,25.7001,,,,,,,,,,,11.1277,11.1266,0.1188,229.016,56.468,57.229,,,,,,,,,,,,
CalCOFI,2105SH,002,,2105_002d,04-May-2021 20:52:45,04-May-2021 12:52:45,32.91152,-117.39464,093.3 028.0,093.3,028.0,47.000,47.339,,11.0707,,11.0752,,11.0730,33.6538,,33.6550,33.6489,,33.6508,33.6529,3.4950,,3.7212,3.8080,3.5445,,3.7308,3.8150,3.8115,152.175,161.5825,117.6391,154.329,169.4779,117.5403,117.5897,0.1337,,0.7542,0.7267,1.7236,,0.0000,,25.7157,,25.7110,,,,,,,,,,,11.0649,11.0694,0.1211,227.822,56.152,56.950,,,,,,,,,,,,
CalCOFI,2105SH,002,,2105_002d,04-May-2021 20:52:47,04-May-2021 12:52:47,32.91152,-117.39464,093.3 028.0,093.3,028.0,48.000,48.346,,11.0186,,11.0151,,11.0169,33.6557,,33.6569,33.6529,,33.6548,33.6559,3.4183,,3.6410,3.7257,3.4562,,3.6393,3.7213,3.7235,148.832,158.0878,115.3614,150.483,165.8675,114.9620,115.1617,0.1304,,0.7311,0.7026,1.7118,,0.0000,,25.7264,,25.7249,,,,,,,,,,,11.0127,11.0093,0.1233,226.816,54.859,55.462,,,,,,,,,,,,
CalCOFI,2105SH,002,,2105_002d,04-May-2021 20:52:49,04-May-2021 12:52:49,32.91151,-117.39464,093.3 028.0,093.3,028.0,49.000,49.353,,10.8964,,10.8971,,10.8968,33.6787,,33.6799,33.6710,,33.6729,33.6764,3.3812,,3.6022,3.6859,3.4324,,3.6147,3.6960,3.6910,147.210,156.3921,114.2562,149.441,164.1157,114.2634,114.2598,0.1201,,0.6584,0.6275,1.7029,,0.0000,,25.7661,,25.7600,,,,,,,,,,,10.8905,10.8912,0.1256,223.057,54.129,54.947,,,,,,,,,,,,
CalCOFI,2105SH,002,,2105_002d,04-May-2021 20:52:51,04-May-2021 12:52:51,32.91150,-117.39464,093.3 028.0,093.3,028.0,50.000,50.361,,10.8587,,10.8588,,10.8588,33.6827,,33.6839,33.6797,,33.6816,33.6828,3.3796,,3.6005,3.6842,3.4244,,3.6064,3.6875,3.6859,147.141,156.3200,114.2092,149.091,164.0412,114.0287,114.1190,0.1090,,0.5796,0.5465,1.6949,,0.0000,,25.7760,,25.7736,,,,,,,,,,,10.8527,10.8527,0.1278,222.145,54.062,54.777,,,,,,,,,,,,
CalCOFI,2105SH,002,,2105_002d,04-May-2021 20:52:53,04-May-2021 12:52:53,32.91150,-117.39464,093.3 028.0,093.3,028.0,51.000,51.368,,10.8463,,10.8462,,10.8463,33.6854,,33.6866,33.6832,,33.6851,33.6859,3.3571,,3.5770,3.6601,3.4057,,3.5870,3.6677,3.6639,146.159,155.2934,113.5402,148.275,162.9806,113.4817,113.5110,0.1079,,0.5717,0.5385,1.6851,,0.0000,,25.7803,,25.7786,,,,,,,,,,,10.8402,10.8401,0.1301,221.754,53.688,54.464,51,10.572,,,149.54,0.509,0.295,17.73,0.080,0.00,1.45,16.24
CalCOFI,2105SH,002,,2105_002d,04-May-2021 20:52:55,04-May-2021 12:52:55,32.91150,-117.39464,093.3 028.0,093.3,028.0,52.000,52.375,,10.8325,,10.8324,,10.8325,33.6889,,33.6901,33.6871,,33.6890,33.6896,3.3408,,3.5599,3.6426,3.3898,,3.5706,3.6508,3.6467,145.450,154.5522,113.0571,147.585,162.2149,113.0191,113.0381,0.1056,,0.5553,0.5217,1.6751,,0.0000,,25.7855,,25.7841,,,,,,,,,,,10.8262,10.8262,0.1323,221.280,53.413,54.197,,,,,,,,,,,,
CalCOFI,2105SH,002,,2105_002d,04-May-2021 20:52:56,04-May-2021 12:52:56,32.91150,-117.39464,093.3 028.0,093.3,028.0,53.000,53.383,,10.8189,,10.8186,,10.8188,33.6924,,33.6936,33.6909,,33.6928,33.6932,3.3244,,3.5428,3.6250,3.3768,,3.5571,3.6370,3.6310,144.733,153.8027,112.5686,147.017,161.4405,112.6383,112.6035,0.1046,,0.5481,0.5144,1.6655,,0.0000,,25.7907,,25.7895,,,,,,,,,,,10.8125,10.8122,0.1345,220.815,53.136,53.973,,,,,,,,,,,,
CalCOFI,2105SH,002,,2105_002d,04-May-2021 20:52:58,04-May-2021 12:52:58,32.91150,-117.39464,093.3 028.0,093.3,028.0,54.000,54.390,,10.8074,,10.8073,,10.8074,33.6955,,33.6967,33.6942,,33.6961,33.6964,3.2926,,3.5095,3.5909,3.3374,,3.5163,3.5952,3.5931,143.351,152.3579,111.6269,145.302,159.9480,111.4886,111.5578,0.1086,,0.5767,0.5436,1.6548,,0.0000,,25.7951,,25.7941,,,,,,,,,,,10.8009,10.8008,0.1368,220.417,52.617,53.332,,,,,,,,,,,,
CalCOFI,2105SH,002,,2105_002d,04-May-2021 20:53:00,04-May-2021 12:53:00,32.91148,-117.39464,093.3 028.0,093.3,028.0,55.000,55.398,,10.7706,,10.7702,,10.7704,33.7058,,33.7070,33.7002,,33.7021,33.7046,3.2512,,3.4662,3.5465,3.3019,,3.4795,3.5576,3.5521,141.547,150.4720,110.3978,143.754,157.9997,110.4508,110.4243,0.1093,,0.5817,0.5487,1.6459,,0.0000,,25.8097,,25.8053,,,,,,,,,,,10.7640,10.7636,0.1390,219.051,51.918,52.725,,,,,,,,,,,,
CalCOFI,2105SH,002,,2105_002d,04-May-2021 20:53:02,04-May-2021 12:53:02,32.91148,-117.39464,093.3 028.0,093.3,028.0,56.000,56.405,,10.6663,,10.6662,,10.6663,33.7209,,33.7221,33.7171,,33.7190,33.7206,3.2646,,3.4802,3.5608,3.3067,,3.4845,3.5627,3.5618,142.126,151.0773,110.7923,143.956,158.6250,110.5862,110.6893,0.0892,,0.4374,0.4021,1.6396,,0.0000,,25.8397,,25.8368,,,,,,,,,,,10.6596,10.6595,0.1412,216.206,52.020,52.688,,,,,,,,,,,,